Weather History for Canby, MN

Change the Weather History Date:

Monday, October 22, 2012

  Actual Average (KMML) Record (KMML)
Temperature  
Mean Temperature 50 °F -  
Max Temperature 58 °F 62 °F 80 °F (1991)
Min Temperature 41 °F 36 °F 18 °F (1976)
Degree Days  
Heating Degree Days 16    
Moisture  
Dew Point 46 °F    
Average Humidity 87    
Maximum Humidity 99    
Minimum Humidity 70    
Precipitation  
Precipitation 0.00 in - - ()
Sea Level Pressure  
Sea Level Pressure 29.93 in    
Wind  
Wind Speed 9 mph (NNE)    
Max Wind Speed 15 mph    
Max Gust Speed 18 mph    
Visibility 8 miles    
Events      
Averages and records for this station are not official NWS values.
T = Trace of Precipitation, MM = Missing Value Source: NWS Daily Summary

Daily Weather History Graph

Daily Weather History Graph

Search for Another Location

Airport:

Trip Planner

Search our weather history database for the weather conditions in past years. The results will help you decide how hot, cold, wet, or windy it might be!

Date:

Astronomy

Oct. 22, 2012 Rise Set
Actual Time 7:50 AM CDT 6:27 PM CDT
Civil Twilight 7:20 AM CDT 6:57 PM CDT
Nautical Twilight 6:46 AM CDT 7:31 PM CDT
Astronomical Twilight 6:12 AM CDT 8:05 PM CDT
Moon 2:52 PM CDT (10/22) 12:21 AM CDT (10/22)
Length of Visible Light 11h 37m
Length of Day
10h 37m
First Quarter, 56% of the Moon is Illuminated
Oct 22
First Quarter
Oct 29
Full
Nov 6
Last Quarter
Nov 13
New
Nov 20
First Quarter

Hourly Weather History & Observations

Time (CDT) Temp. Windchill Dew Point Humidity Pressure Visibility Wind Dir Wind Speed Gust Speed Precip Events Conditions
12:15 AM 43.7 °F 38.1 °F 42.4 °F 95% 29.96 in 10.0 mi NW 10.4 mph - N/A   Clear
12:54 AM 42.8 °F 37.0 °F 41.9 °F 97% 29.96 in 10.0 mi NW 10.4 mph - N/A   Clear
1:34 AM 42.3 °F 37.9 °F 41.4 °F 97% 29.97 in 10.0 mi NW 6.9 mph - N/A   Scattered Clouds
1:54 AM 42.3 °F 37.3 °F 41.5 °F 97% 29.97 in 7.0 mi NNW 8.1 mph - N/A   Overcast
2:14 AM 42.4 °F 37.5 °F 41.9 °F 98% 29.96 in 7.0 mi NNW 8.1 mph - N/A   Overcast
2:34 AM 42.4 °F 37.5 °F 41.5 °F 97% 29.95 in 7.0 mi NW 8.1 mph - N/A   Overcast
2:55 AM 41.7 °F 37.3 °F 41.0 °F 97% 29.95 in 7.0 mi NW 6.9 mph - N/A   Mostly Cloudy
3:14 AM 42.1 °F 37.1 °F 41.5 °F 98% 29.95 in 7.0 mi NNW 8.1 mph - N/A   Scattered Clouds
3:55 AM 42.3 °F 37.3 °F 41.5 °F 97% 29.94 in 7.0 mi NNW 8.1 mph - N/A   Clear
4:15 AM 41.2 °F 35.0 °F 40.5 °F 97% 29.95 in 5.0 mi NW 10.4 mph - N/A   Mostly Cloudy
4:34 AM 41.5 °F 35.4 °F 41.0 °F 98% 29.95 in 1.2 mi NNW 10.4 mph - N/A   Overcast
4:54 AM 41.9 °F 35.9 °F 41.7 °F 99% 29.95 in 0.8 mi NNW 10.4 mph - N/A   Overcast
5:15 AM 42.8 °F 35.8 °F 42.3 °F 98% 29.96 in 0.8 mi NNW 13.8 mph 17.3 mph N/A   Overcast
5:34 AM 43.0 °F 37.7 °F 42.6 °F 99% 29.97 in 1.8 mi NNW 9.2 mph - N/A   Overcast
5:54 AM 43.3 °F 37.7 °F 43.0 °F 99% 29.97 in 5.0 mi NNW 10.4 mph - N/A   Overcast
6:15 AM 43.7 °F 38.1 °F 43.2 °F 98% 29.97 in 1.2 mi NNW 10.4 mph - N/A   Overcast
6:34 AM 43.9 °F 39.3 °F 43.7 °F 99% 29.98 in 1.2 mi NNW 8.1 mph - N/A   Overcast
6:54 AM 44.4 °F 39.5 °F 43.9 °F 98% 29.97 in 3.0 mi NNW 9.2 mph - N/A   Overcast
7:15 AM 44.6 °F 39.7 °F 44.2 °F 99% 29.97 in 2.5 mi NNW 9.2 mph - N/A   Overcast
7:35 AM 45.0 °F 40.1 °F 44.6 °F 99% 29.97 in 4.0 mi NNW 9.2 mph - N/A   Overcast
7:54 AM 45.5 °F 39.9 °F 45.0 °F 98% 29.96 in 4.0 mi North 11.5 mph 16.1 mph N/A   Overcast
8:15 AM 45.5 °F 41.8 °F 45.0 °F 98% 29.98 in 2.5 mi North 6.9 mph - N/A   Overcast
8:34 AM 45.1 °F 40.3 °F 44.6 °F 98% 29.98 in 2.0 mi NNW 9.2 mph - N/A   Overcast
8:55 AM 45.0 °F 41.8 °F 44.6 °F 99% 29.99 in 2.5 mi NNW 5.8 mph - N/A   Overcast
9:14 AM 45.5 °F 40.8 °F 44.8 °F 97% 29.99 in 3.0 mi North 9.2 mph - N/A   Overcast
9:35 AM 46.0 °F 42.5 °F 45.5 °F 98% 29.99 in 5.0 mi North 6.9 mph - N/A   Overcast
9:54 AM 47.3 °F - 46.4 °F 97% 29.99 in 5.0 mi North 6.9 mph - N/A   Overcast
10:15 AM 48.2 °F - 46.9 °F 95% 29.99 in 7.0 mi North 6.9 mph - N/A   Overcast
10:34 AM 49.6 °F - 47.5 °F 92% 29.98 in 7.0 mi NNE 8.1 mph - N/A   Overcast
10:54 AM 51.1 °F - 48.2 °F 90% 29.98 in 10.0 mi NNE 10.4 mph - N/A   Overcast
11:15 AM 52.0 °F - 48.4 °F 88% 29.98 in 10.0 mi NE 13.8 mph - N/A   Overcast
11:34 AM 52.7 °F - 48.2 °F 85% 29.97 in 10.0 mi NE 12.7 mph - N/A   Overcast
11:55 AM 54.0 °F - 48.4 °F 81% 29.97 in 10.0 mi NE 12.7 mph - N/A   Overcast
12:14 PM 54.9 °F - 48.6 °F 79% 29.96 in 10.0 mi NE 11.5 mph - N/A   Overcast
12:35 PM 55.4 °F - 48.4 °F 77% 29.95 in 10.0 mi ENE 15.0 mph - N/A   Overcast
12:54 PM 55.4 °F - 48.6 °F 78% 29.94 in 10.0 mi NE 13.8 mph - N/A   Overcast
1:15 PM 56.5 °F - 48.7 °F 75% 29.94 in 10.0 mi ENE 10.4 mph 18.4 mph N/A   Overcast
1:34 PM 57.2 °F - 49.1 °F 74% 29.92 in 10.0 mi NE 11.5 mph - N/A   Overcast
1:55 PM 57.9 °F - 48.7 °F 71% 29.91 in 10.0 mi NE 12.7 mph 16.1 mph N/A   Overcast
2:15 PM 58.1 °F - 48.9 °F 71% 29.91 in 10.0 mi NE 10.4 mph - N/A   Overcast
2:35 PM 58.5 °F - 48.6 °F 70% 29.90 in 10.0 mi ENE 12.7 mph - N/A   Overcast
3:14 PM 57.7 °F - 48.6 °F 71% 29.90 in 10.0 mi East 11.5 mph - N/A   Overcast
3:35 PM 57.6 °F - 48.7 °F 72% 29.90 in 10.0 mi East 10.4 mph - N/A   Overcast
3:55 PM 57.2 °F - 48.4 °F 72% 29.89 in 10.0 mi ENE 9.2 mph - N/A   Overcast
4:15 PM 56.5 °F - 48.2 °F 74% 29.89 in 10.0 mi East 11.5 mph - N/A   Overcast
4:35 PM 56.3 °F - 48.0 °F 74% 29.88 in 10.0 mi ENE 10.4 mph - N/A   Overcast
4:54 PM 55.9 °F - 47.8 °F 74% 29.88 in 10.0 mi ENE 11.5 mph - N/A   Overcast
5:15 PM 55.6 °F - 47.7 °F 75% 29.88 in 10.0 mi ENE 10.4 mph - N/A   Overcast
5:34 PM 55.6 °F - 47.7 °F 75% 29.88 in 10.0 mi ENE 6.9 mph - N/A   Overcast
5:54 PM 55.4 °F - 47.5 °F 75% 29.88 in 10.0 mi ENE 8.1 mph - N/A   Overcast
6:14 PM 54.7 °F - 48.0 °F 78% 29.88 in 10.0 mi NNE 5.8 mph - N/A   Overcast
6:35 PM 54.1 °F - 48.2 °F 80% 29.89 in 10.0 mi NNE 4.6 mph - N/A   Overcast
6:54 PM 53.8 °F - 48.2 °F 81% 29.89 in 10.0 mi NE 5.8 mph - N/A   Overcast
7:15 PM 53.6 °F - 48.2 °F 82% 29.88 in 10.0 mi NE 6.9 mph - N/A   Overcast
7:34 PM 53.6 °F - 48.2 °F 82% 29.88 in 10.0 mi NE 5.8 mph - N/A   Overcast
7:54 PM 53.2 °F - 48.2 °F 83% 29.88 in 10.0 mi NE 4.6 mph - N/A   Overcast
8:15 PM 53.2 °F - 48.2 °F 83% 29.88 in 10.0 mi ENE 6.9 mph - N/A   Overcast
8:35 PM 53.2 °F - 48.2 °F 83% 29.87 in 10.0 mi ENE 5.8 mph - N/A   Overcast
8:54 PM 52.9 °F - 48.4 °F 85% 29.86 in 10.0 mi NE 4.6 mph - N/A   Overcast
9:15 PM 52.9 °F - 48.2 °F 84% 29.87 in 10.0 mi ENE 4.6 mph - N/A   Overcast
9:35 PM 52.9 °F - 48.0 °F 84% 29.87 in 10.0 mi Calm Calm - N/A   Overcast
9:55 PM 52.7 °F - 48.2 °F 85% 29.85 in 10.0 mi NE 3.5 mph - N/A   Overcast
10:14 PM 52.7 °F - 47.5 °F 82% 29.85 in 10.0 mi NE 3.5 mph - N/A   Overcast
10:35 PM 52.7 °F - 47.5 °F 82% 29.85 in 10.0 mi Calm Calm - N/A   Overcast
10:55 PM 52.3 °F - 47.5 °F 84% 29.85 in 10.0 mi Calm Calm - N/A   Overcast
11:14 PM 52.3 °F - 47.5 °F 84% 29.84 in 10.0 mi East 3.5 mph - N/A   Overcast
11:34 PM 52.3 °F - 47.3 °F 83% 29.83 in 10.0 mi East 4.6 mph - N/A   Overcast
11:54 PM 52.3 °F - 47.3 °F 83% 29.83 in 10.0 mi East 6.9 mph - N/A   Overcast